Regional Weather Roundup
Issued by NWS Lake Charles, LA

Current Version | Previous Version | Text Only | Print | Product List | Glossary On
Versions: 1 2 3 4 5 6 7 8 9 10 11 12 13 14 15 16 17 18 19 20 21 22 23 24 25 26 27 28 29 30 31 32 33 34 35 36 37 38 39 40 41 42 43 44 45 46 47 48 49 50
000
ASUS44 KLCH 160310
RWRLCH
RWRLCH
REGIONAL WEATHER ROUNDUP
NATIONAL WEATHER SERVICE LAKE CHARLES LA
1000 PM CDT MON SEP 15 2014

Note: "fair" indicates few or no clouds below 12,000 feet with no
significant weather and/or obstructions to visibility.


ACROSS SOUTHEAST TEXAS

CITY           SKY/WX    TMP DP  RH WIND       PRES   REMARKS
BEAUMONT       MOCLDY    80  77  90 CALM      30.06S
BEAUMONT CITY    N/A     79  76  89 CALM      30.07S
ORANGE         MOCLDY    81  80  98 CALM      30.08S
JASPER         PTCLDY    79  73  84 NE5       30.11S
$$

ACROSS CENTRAL LOUISIANA

CITY           SKY/WX    TMP DP  RH WIND       PRES   REMARKS
LEESVILLE      MOCLDY    79  74  84 N7        30.09R
FULLERTON        N/A     80  75  84 CALM      30.07R
ALEXANDRIA INT MOCLDY    79  73  82 N7        30.07S
ESLER FIELD    MOCLDY    79  74  84 CALM      30.09S
DERIDDER         N/A     78  75  88 N5        30.10S FOG
OAKDALE        CLOUDY    78  76  91 CALM      30.10R
OPELOUSAS        N/A     75  73  95 CALM      30.09R
$$

ACROSS SOUTHWEST AND SOUTH CENTRAL LOUISIANA

CITY           SKY/WX    TMP DP  RH WIND       PRES   REMARKS
SULPHUR        PTCLDY    78  76  95 CALM      30.08R
LAKE CHARLES   PTCLDY    79  75  87 E3        30.07R
CHENNAULT INT  MOCLDY    80  75  85 E6        30.09R
CAMERON PHI    CLEAR     82  77  83 SE6       30.09R
DEQUINCY       CLOUDY    79  75  89 CALM      30.08R
JENNINGS       CLOUDY    77  72  83 CALM      30.07S
LAFAYETTE      PTCLDY    76  75  97 CALM      30.08R
NEW IBERIA     MOCLDY    76  74  93 CALM      30.09R
ABBEVILLE        N/A     74  73  96 CALM      30.09R
PATTERSON      PTCLDY    77  75  94 CALM      30.12R
SALT POINT       N/A     81  77  88 SE3       30.07S
$$

SELECTED SITES ACROSS THE REGION

CITY           SKY/WX    TMP DP  RH WIND       PRES   REMARKS
HOUSTON BUSH   MOCLDY    80  75  84 SE3       30.07R
HOUSTON HOBBY  MOCLDY    82  78  88 CALM      30.05S
GALVESTON      PTCLDY    83  78  85 E10       30.06R
COLLEGE STAT   MOCLDY    79  72  79 NE10      30.09R
CONROE         CLOUDY    79  73  82 SE6       30.09R
HUNTSVILLE     MOCLDY    79  72  79 NE3       30.10R
LUFKIN         MOCLDY    80  72  76 NE6       30.10R
SHREVEPORT     MOCLDY    77  70  79 E3        30.11S
MONROE         MOCLDY    75  71  87 NE3       30.11F
NATCHEZ MS     MOCLDY    75  73  94 NE5       30.11R
BATON ROUGE    MOCLDY    76  74  93 CALM      30.09R
N.O. INTL ARPT MOCLDY    79  76  90 SW3       30.08F
SLIDELL        CLOUDY    79  74  84 NE6       30.09S
$$

MARINE REPORTS

STATION/POSITION TIME  TEMP    WIND        PRES    VSBY  WAVE
                       AIR SEA DIR/SP/G                  HT/PER
                 (UTC) (F)     (DEG/KT/KT) (MB)    (MI)  (FT/S)
BUOY 30 S HIGH I 0300   84 85   90/ 12/ 12 1017.2R         2/ 5
SEA RIM ST PARK  0300   82     110/  5/  6 1018.5R
PORT ARTHUR      0300                      1018.2
SABINE PASS N    0300                      1018.0
TEXAS POINT      0300                      1018.2
CALCASIEU PASS   0300                      1019.0
LK CHARLES BEACH 0300                      1018.4
MARSH ISLAND     NOT AVBL
FRESH WATER LOCK 0300                      1018.4
AMERADA PASS     0300                      1018.5
$$


USA.gov is the U.S. government's official web portal to all federal, state and local government web resources and services.